Regional Weather Roundup
Issued by NWS

Home | Current Version | Previous Version | Graphics & Text | Print | Product List | Glossary On
Versions: 1 2 3 4 5 6 7 8 9 10 11 12 13 14 15 16 17 18 19 20 21 22 23 24 25
000
ASUS45 KCYS 230610
RWRWY

WYOMING REGIONAL WEATHER ROUNDUP
NATIONAL WEATHER SERVICE CHEYENNE WY
1200 AM MDT THU OCT 23 2014

NOTE:  "FAIR" INDICATES FEW OR NO CLOUDS BELOW 12,000 FEET
WITH NO SIGNIFICANT WEATHER AND/OR OBSTRUCTIONS TO VISIBILITY.

WYZ001-230700-
YELLOWSTONE NATIONAL PARK

CITY           SKY/WX    TMP DP  RH WIND       PRES   REMARKS
LK YELLOWSTONE   N/A     26  23  88 CALM      30.23F
6HR MIN TEMP:  25; 6HR MAX TEMP:  37;

W YELLOWSTONE  NOT AVBL

$$
WYZ002>013-054>058-071-098>099-230700-
NORTHERN WYOMING

CITY           SKY/WX    TMP DP  RH WIND       PRES   REMARKS
JACKSON        CLEAR     27  25  93 N7        30.22R WCI  19
CODY           CLEAR     54  21  28 W16G33    30.04F
GREYBULL       CLEAR     35  19  52 W8        30.04S WCI  29
6HR MIN TEMP:  35; 6HR MAX TEMP:  58;

WORLAND        FLURRIES  34  19  54 E6        30.04F WCI  29
6HR MIN TEMP:  33; 6HR MAX TEMP:  53; 6HR PCP: TRACE;

SHERIDAN       CLEAR     33  23  66 S3        29.99F
6HR MIN TEMP:  31; 6HR MAX TEMP:  55;

BUFFALO        CLEAR     40  18  41 SW8       30.04F WCI  34
6HR MIN TEMP:  40; 6HR MAX TEMP:  54;

GILLETTE       CLEAR     41  21  44 SW5       30.02F
6HR MIN TEMP:  33; 6HR MAX TEMP:  56;

HULETT         FAIR      39  27  60 SW9       30.03  WCI  33
NEWCASTLE      FAIR      37  27  65 MISG      30.07

$$
WYZ014>020-022>026-101>103-230700-
CENTRAL WYOMING

CITY           SKY/WX    TMP DP  RH WIND       PRES   REMARKS
BIG PINEY      PTCLDY    28  20  71 N12       30.25R WCI  18
6HR MIN TEMP:  26; 6HR MAX TEMP:  52;

PINEDALE       PTCLDY    27  21  80 NW5       30.25R WCI  21
DUBOIS         FAIR      34  19  55 NW16      30.16S WCI  23
LANDER         CLEAR     39  21  48 CALM      30.10S
6HR MIN TEMP:  39; 6HR MAX TEMP:  56;

RIVERTON       CLEAR     41  19  41 W12       30.11S
6HR MIN TEMP:  40; 6HR MAX TEMP:  55;

CASPER         CLEAR     43  16  33 SW14      30.10S
6HR MIN TEMP:  40; 6HR MAX TEMP:  54;

DOUGLAS        PTCLDY    33  16  49 E5        30.11R WCI  29
6HR MIN TEMP:  32; 6HR MAX TEMP:  58;


$$
WYZ021-027>030-104>119-230700-
SOUTHERN WYOMING

CITY           SKY/WX    TMP DP  RH WIND       PRES   REMARKS
EVANSTON       PTCLDY    39  21  48 S9        30.24F WCI  33
6HR MIN TEMP:  39; 6HR MAX TEMP:  52;

KEMMERER       PTCLDY    36  19  51 W5        30.25F WCI  32
FORT BRIDGER   FAIR      40  22  48 W9        30.27S WCI  34
ROCK SPRINGS   PTCLDY    40  21  46 SW6       30.24S
6HR MIN TEMP:  39; 6HR MAX TEMP:  49;

DIXON          FAIR      37  32  83 CALM      30.27S
RAWLINS        CLEAR     37  25  61 S8        30.20F WCI  31
6HR MIN TEMP:  35; 6HR MAX TEMP:  49;

SARATOGA       FAIR      36  30  80 S9        30.25R WCI  29
LARAMIE        CLEAR     44  26  49 SW13      30.19F
6HR MIN TEMP:  34; 6HR MAX TEMP:  50;

CHEYENNE       PTCLDY    42  29  59 S7        30.17F
6HR MIN TEMP:  42; 6HR MAX TEMP:  59;

TORRINGTON     CLEAR     45  22  40 W6        30.08F
6HR MIN TEMP:  45; 6HR MAX TEMP:  61;

PINE BLUFFS    FAIR      36  34  93 CALM      30.15F

$$



USA.gov is the U.S. government's official web portal to all federal, state and local government web resources and services.